Regional Weather Roundup
Issued by NWS

Home | Current Version | Previous Version | Text Only | Print | Product List | Glossary On
Versions: 1 2 3 4 5 6 7 8 9 10 11 12 13 14 15 16 17 18 19 20 21 22 23 24 25 26 27 28 29 30 31 32 33 34 35 36 37 38 39 40 41 42 43 44 45 46 47 48 49 50
000
ASUS45 KREV 241410
RWRNV
NEVADA REGIONAL WEATHER ROUNDUP
NATIONAL WEATHER SERVICE RENO NV
700 AM PDT MON JUL 24 2017

NOTE: "FAIR" INDICATES FEW OR NO CLOUDS BELOW 12,000 FEET WITH NO
SIGNIFICANT WEATHER AND/OR OBSTRUCTIONS TO VISIBILITY.

NVZ001-003-004-241500-
WESTERN NEVADA

CITY           SKY/WX    TMP DP  RH WIND       PRES   REMARKS
RENO           PTSUNNY   73  47  39 W3        30.03R
CARSON CITY    FAIR      66  48  52 SW3       30.06R
MINDEN         PTSUNNY   59  54  82 CALM      30.05S
FALLON         PTSUNNY   71  53  52 W5        29.98R
LOVELOCK       PTSUNNY   68  53  58 E10       29.98F
HAWTHORNE      SUNNY     73  57  56 SE10      30.00S
$$

NVZ002-CAZ072-073-241500-
NORTHERN AND CENTRAL SIERRA

CITY           SKY/WX    TMP DP  RH WIND       PRES   REMARKS
S. LAKE TAHOE  CLOUDY    57  48  72 S6        30.15S
TRUCKEE        MOSUNNY   52  46  82 CALM      30.15R
SQUAW VLY 8000   N/A     61  41  48 SW6         N/A
SUSANVILLE     SUNNY     61  39  44 S3        30.02R
MAMMOTH LAKES  FAIR      56  46  68 CALM      30.24R
BRIDGEPORT     FAIR      59  41  51 CALM      30.18S
$$

NVZ030-031-036-241500-
NORTHERN NEVADA

CITY           SKY/WX    TMP DP  RH WIND       PRES   REMARKS
ELKO           SUNNY     64  47  53 E7        30.10R
WINNEMUCCA     CLOUDY    67  45  45 S7        30.01R
WENDOVER       MOSUNNY   73  44  35 NE3       30.02R
$$

NVZ035-037-241500-
CENTRAL NEVADA

CITY           SKY/WX    TMP DP  RH WIND       PRES   REMARKS
ELY              N/A    N/A N/A N/A MISG      30.21R
EUREKA           N/A     66  45  46 S3        30.15
$$

NVZ013-014-241500-
SOUTH CENTRAL NEVADA

CITY           SKY/WX    TMP DP  RH WIND       PRES   REMARKS
TONOPAH        MOSUNNY   68  50  52 N8        30.13R
$$

NVZ017-020-022-241500-
SOUTHERN NEVADA

CITY           SKY/WX    TMP DP  RH WIND       PRES   REMARKS
LAS VEGAS      PTSUNNY   87  62  43 S8        29.90R
N. LAS VEGAS   MOSUNNY   86  59  39 E9        29.90S
NELLIS AFB     MOSUNNY   86  63  45 SE5       29.88S
HENDERSON      MOSUNNY   84  61  45 S10       29.94S
MERCURY        SUNNY     82  56  40 NW7       29.95R
$$



USA.gov is the U.S. government's official web portal to all federal, state and local government web resources and services.